Wind_Speed
28 28 28 28 27 26 25 23 21 20 18 17 17 17 16 16 16 16 16 16 15 15 14 13 13 12 12 11 11 11 11 12 12 12 12 13 13 12 12 12 11 10 9 9 9 10 11 10 10 9 9 8 9 11 13 15 15 15 14 12 10 9 8 8 8 7 6 6 6 6 6 5 5 5 5 6 5 5 4 4 5 6 6 8 10
27 29 29 29 28 28 27 26 24 22 20 18 18 17 17 17 17 16 16 16 15 15 15 14 13 13 13 13 12 12 12 13 13 13 13 14 14 13 13 12 12 11 11 10 9 10 10 10 10 9 9 9 9 9 11 13 14 15 15 14 12 10 9 9 8 7 7 6 6 7 7 6 6 6 7 7 7 7 6 6 6 6 6 8 10
28 29 30 30 30 29 29 28 26 23 21 21 20 19 19 18 18 17 17 17 16 15 15 14 14 14 14 13 13 13 13 14 14 13 14 15 15 14 14 13 12 12 11 11 10 10 9 9 9 10 9 9 9 9 9 11 13 13 14 14 13 11 11 10 9 8 8 8 7 7 8 8 8 8 9 9 9 9 9 9 9 9 9 9 10
30 30 30 30 31 31 30 29 27 25 24 23 23 22 21 20 19 19 19 18 17 16 15 14 14 14 14 14 14 14 14 15 15 15 15 16 16 16 15 14 13 12 12 11 11 10 9 9 9 9 9 9 9 9 9 10 11 12 13 13 13 12 11 11 10 10 10 9 9 9 9 9 9 10 11 11 12 11 11 11 11 11 12 11 12
28 31 31 31 32 31 30 30 28 27 26 25 25 25 24 23 22 21 21 20 19 18 16 15 15 15 15 15 15 15 15 16 17 16 16 16 17 17 16 15 14 13 12 12 11 11 10 9 9 8 8 8 8 9 9 10 10 11 12 12 13 13 13 13 12 12 12 11 11 11 11 10 11 11 11 12 13 13 13 13 13 13 14 14 13
25 30 32 32 32 32 32 31 29 28 28 28 28 28 26 25 24 23 23 22 21 20 18 17 16 17 17 16 16 16 16 17 18 18 17 17 17 17 16 15 14 13 12 12 11 10 10 9 8 8 8 7 7 7 8 8 9 9 10 11 13 14 14 15 15 15 15 14 14 14 14 13 13 13 12 13 13 14 14 15 15 15 17 17 16
24 28 32 33 33 32 32 32 31 31 31 30 30 30 28 27 25 25 24 23 23 21 20 19 18 18 18 17 17 17 17 17 18 19 18 18 18 17 17 16 15 14 13 12 11 10 9 8 8 7 7 7 6 6 6 6 7 7 8 10 11 13 14 15 15 16 17 17 17 18 17 16 16 16 14 14 14 15 15 17 18 17 17 18 17
25 27 31 34 34 33 33 33 33 33 33 32 32 31 30 28 27 26 26 24 23 22 21 21 20 20 20 19 18 17 17 17 18 20 20 19 19 19 18 17 17 16 14 13 12 11 9 8 8 7 6 6 6 5 6 6 6 7 8 8 9 11 12 13 14 15 17 18 19 20 19 19 20 19 17 16 16 16 17 18 20 20 20 20 18
28 28 30 32 34 34 34 35 35 35 35 34 33 32 31 30 29 28 26 25 24 23 23 22 21 21 20 20 19 18 17 18 19 20 21 21 21 21 20 19 18 17 16 14 13 12 11 10 9 8 7 7 6 7 7 7 8 8 8 8 9 10 11 11 12 14 15 16 18 19 20 20 22 22 20 18 17 18 19 20 21 22 23 23 22
30 29 29 31 34 36 36 36 36 37 36 35 34 33 33 32 31 29 28 27 26 25 24 23 22 21 21 20 19 18 18 19 20 21 23 23 23 23 22 21 20 19 17 16 15 13 12 11 10 9 8 8 8 9 9 9 9 10 9 9 9 10 11 12 12 14 15 15 17 18 18 19 21 22 21 21 20 20 21 21 21 22 23 24 25
32 31 30 31 34 36 37 37 38 38 37 36 35 34 34 34 33 31 30 29 28 27 26 24 23 23 23 22 20 19 19 20 21 22 23 24 25 25 24 23 22 21 19 18 16 15 14 13 12 11 10 11 11 11 10 10 11 11 11 10 9 10 11 12 13 14 15 15 17 18 17 18 20 20 19 20 21 22 23 23 23 23 24 24 26
33 31 31 32 35 37 38 38 38 38 38 37 37 36 36 36 34 33 32 31 30 29 27 26 25 25 24 23 22 20 20 21 22 22 23 24 26 26 26 25 24 23 21 20 18 17 16 14 13 13 13 13 13 12 12 12 12 12 12 11 10 11 12 13 14 15 15 15 16 17 18 19 20 20 19 19 20 21 23 25 25 25 25 25 26
35 33 32 33 34 36 38 39 39 38 38 38 38 38 38 37 35 34 34 33 32 31 29 28 27 27 26 25 23 22 23 23 24 23 24 25 26 27 28 27 26 25 24 22 21 19 17 16 15 15 15 15 15 14 14 14 14 13 13 12 12 13 13 14 15 16 16 15 16 17 18 18 19 20 20 19 19 20 21 23 25 26 26 27 27
37 35 34 33 33 34 36 38 38 38 38 39 39 39 38 37 36 36 36 35 34 33 32 31 30 28 27 27 26 25 24 25 25 25 25 25 26 27 29 29 29 28 26 25 23 22 20 19 18 18 18 18 17 17 17 17 16 15 14 14 14 15 15 16 17 17 17 17 17 18 19 18 18 20 20 19 19 20 20 21 23 24 26 27 28
39 38 38 37 36 36 36 36 37 38 38 39 39 39 38 37 37 37 37 36 36 36 35 34 32 31 30 29 28 27 26 26 27 26 26 27 27 27 28 29 30 30 29 28 27 25 24 23 22 21 21 20 20 20 20 20 19 17 17 17 17 18 18 19 19 19 19 18 18 19 20 19 19 20 21 20 20 20 20 21 22 23 24 25 27
43 42 42 41 40 39 37 37 37 38 39 39 38 38 38 37 37 37 38 38 38 38 37 36 35 35 33 32 30 29 29 29 28 28 28 28 28 28 28 29 30 31 32 31 30 29 28 27 25 25 24 24 24 24 24 23 22 21 20 20 20 20 21 21 21 21 21 20 19 19 20 20 20 20 21 22 21 21 21 21 22 22 23 23 25
48 46 46 44 43 41 39 37 37 38 38 38 38 37 37 37 38 39 39 39 39 38 38 38 38 37 36 35 33 31 32 32 31 30 30 29 29 28 28 29 29 30 32 33 33 32 31 30 28 28 27 27 28 28 28 27 25 24 24 24 23 22 23 24 23 22 22 21 20 19 20 21 21 21 22 22 22 22 21 21 22 21 21 22 23
49 48 48 46 43 41 39 36 36 36 37 38 37 37 37 37 39 39 39 38 38 38 38 38 38 38 37 36 35 34 34 34 34 32 31 31 30 29 29 29 29 30 31 33 34 34 34 33 32 31 30 30 31 32 31 29 28 28 27 27 25 24 26 28 26 24 23 22 21 20 21 22 22 22 22 22 22 22 22 22 21 20 20 20 21
46 46 45 43 41 39 37 34 32 33 35 36 37 38 38 38 38 38 38 37 37 37 37 37 36 36 36 36 35 35 36 36 36 35 34 33 31 30 30 29 29 29 31 32 33 34 35 36 35 34 33 33 34 34 34 32 31 30 30 29 27 27 30 31 28 26 25 23 22 22 22 23 24 24 24 24 23 23 23 23 22 21 20 20 21
44 44 43 42 41 40 38 34 32 32 33 34 36 37 37 37 37 37 36 35 35 35 35 35 34 34 35 35 35 35 36 37 38 37 37 36 34 33 32 30 29 30 31 32 33 34 35 36 37 36 36 36 36 37 38 36 34 32 32 30 29 30 33 33 30 28 28 26 25 24 24 25 25 25 26 25 25 24 24 24 24 23 22 22 22
45 44 44 45 45 44 41 38 35 33 33 33 34 34 35 35 36 35 35 35 34 34 34 33 33 33 33 33 34 34 35 37 38 39 38 38 37 36 34 32 31 31 32 33 33 34 35 36 37 37 38 38 39 40 40 39 37 34 33 32 31 32 34 34 32 31 30 29 28 27 26 26 27 27 27 26 26 25 24 23 23 23 22 22 22
47 47 47 48 49 47 45 42 39 36 34 34 34 33 33 34 33 34 34 34 34 34 34 34 33 33 33 32 32 32 34 35 37 38 38 38 38 38 36 35 34 34 34 33 33 34 35 36 37 38 39 39 40 41 42 41 39 36 34 33 33 33 34 34 33 32 31 31 30 28 27 28 28 27 27 26 26 25 24 23 22 21 21 21 21
50 50 49 49 50 50 48 46 43 40 37 36 35 34 33 33 33 33 33 33 33 34 34 34 34 33 33 32 31 32 33 34 35 35 36 37 38 38 37 36 37 37 36 35 35 35 36 37 37 38 39 40 41 42 43 43 41 37 36 35 34 33 34 33 34 33 33 33 32 30 29 29 27 26 25 24 24 23 23 23 23 22 22 22 22
51 52 51 52 53 51 49 48 46 42 39 38 37 36 35 34 34 34 33 33 33 32 32 33 33 32 32 31 31 32 33 34 34 35 35 35 36 36 36 36 38 39 38 37 37 37 37 38 39 40 40 41 42 43 44 43 41 38 36 35 34 34 33 33 34 34 34 34 32 31 30 29 26 24 22 21 21 21 22 22 21 21 21 20 21
52 53 52 53 54 50 46 46 46 43 41 40 39 38 37 36 36 35 34 34 33 32 32 32 32 31 31 31 31 32 33 34 35 35 35 35 34 34 34 35 37 38 38 38 38 39 39 40 40 41 41 41 42 44 44 43 41 39 36 35 34 33 32 32 33 34 34 33 32 31 30 28 25 22 20 20 19 19 18 18 17 17 17 17 18
53 54 54 54 54 49 43 43 45 44 43 43 42 41 40 39 38 37 37 36 35 34 33 33 32 31 30 30 30 31 33 34 34 35 35 35 35 34 35 34 35 35 35 36 38 39 40 41 42 42 43 43 44 44 44 43 43 41 37 35 34 34 33 32 33 34 33 33 32 31 29 27 24 21 19 19 18 16 16 16 15 15 16 17 18
55 55 54 53 53 51 46 44 46 48 47 46 45 44 43 42 40 39 39 38 37 36 35 34 34 33 31 30 31 32 32 33 33 34 34 35 35 35 35 35 33 33 33 34 36 39 40 41 42 43 44 44 43 43 44 44 43 42 40 37 36 35 34 33 33 33 32 32 32 31 29 26 23 21 20 18 16 15 16 17 18 19 20 20 21
59 57 55 53 52 51 49 46 46 48 49 49 48 47 46 45 44 42 41 40 39 38 38 37 37 35 34 34 33 33 33 32 32 32 33 34 35 36 35 34 34 34 34 34 36 38 39 39 39 41 43 43 42 42 43 43 43 42 41 40 38 36 35 34 33 32 31 32 32 31 28 26 23 22 19 17 16 17 18 19 21 23 23 22 24
59 57 57 57 53 50 49 48 48 49 50 50 50 50 49 49 47 45 44 44 43 42 42 41 40 38 38 37 37 36 34 32 31 31 33 34 35 35 35 34 35 35 36 37 38 38 37 35 35 37 39 39 39 39 40 41 41 41 41 41 39 37 36 35 34 33 32 33 32 31 29 26 24 21 19 18 18 19 19 19 20 22 23 24 25
57 56 57 58 55 52 51 51 51 52 52 52 52 52 51 50 49 47 46 46 46 46 45 44 43 42 41 41 40 39 36 33 32 34 34 34 34 35 34 35 36 37 38 39 38 37 36 34 34 35 37 37 37 36 37 38 38 39 40 41 40 39 38 36 35 33 33 33 33 32 31 28 26 24 22 21 20 19 19 20 22 23 25 26 27
56 54 56 57 54 52 52 52 52 54 55 55 55 54 53 52 51 49 48 49 50 50 49 47 46 46 45 44 43 41 38 36 36 36 36 36 36 36 35 36 38 40 40 39 37 35 35 35 35 36 37 37 36 35 36 36 37 38 40 41 41 40 38 36 34 33 33 34 35 35 35 34 31 28 25 22 19 19 21 22 24 26 27 29 30
58 54 54 55 53 51 51 50 51 53 54 56 57 56 54 53 52 51 49 50 51 52 51 48 47 48 48 47 46 43 41 39 39 40 40 40 39 39 39 39 41 43 43 40 35 34 35 35 35 36 37 37 36 36 35 36 36 38 39 40 40 40 38 34 33 32 33 34 36 37 38 38 35 30 25 20 17 19 23 25 26 28 30 31 33
59 56 54 53 52 50 50 49 49 50 52 54 56 57 56 54 52 50 48 48 50 52 51 48 46 47 48 47 46 44 43 42 42 43 43 43 41 42 43 42 44 47 47 43 38 36 36 36 35 35 36 37 37 37 36 36 37 36 37 38 39 39 37 35 33 33 33 34 36 36 37 39 37 32 27 21 18 20 25 27 28 30 31 33 34
58 58 57 54 52 51 50 50 50 50 50 50 52 55 57 55 52 50 48 47 48 50 51 49 47 47 47 47 46 44 44 43 44 45 45 45 44 46 47 47 47 48 49 47 44 41 39 38 37 36 36 36 37 38 37 37 37 36 35 37 39 39 37 35 34 35 36 37 38 38 38 38 37 34 28 23 21 23 26 29 30 31 33 35 35
60 60 59 56 53 52 51 50 51 51 49 46 46 50 54 55 53 51 49 47 46 48 49 49 48 47 47 46 45 44 43 43 45 46 47 47 48 49 50 49 48 48 49 50 48 44 42 42 41 39 37 37 38 38 38 37 37 36 36 38 40 39 36 34 35 38 39 40 40 39 37 34 32 32 30 26 25 27 29 31 31 33 35 36 36
64 65 64 61 57 55 53 51 51 52 50 47 46 47 49 51 51 51 50 49 47 47 48 48 48 48 47 46 45 43 42 43 44 45 47 48 50 51 51 50 48 48 49 50 49 46 43 43 43 42 40 39 39 39 39 38 37 37 37 39 40 38 35 34 37 39 40 41 41 40 37 31 29 30 31 30 30 31 32 32 33 35 37 37 37
62 63 66 65 61 58 55 54 53 53 52 49 47 48 49 49 49 50 51 51 51 50 50 50 50 50 48 47 45 44 44 44 45 46 48 49 49 50 50 49 49 48 48 50 50 48 44 43 44 44 42 41 40 40 40 39 38 38 39 40 40 37 35 35 38 40 41 41 41 40 38 32 28 30 34 34 34 34 34 34 36 38 38 38 38
63 58 60 65 65 60 56 55 54 54 54 52 50 50 51 52 52 53 53 53 53 53 53 54 53 52 50 48 48 48 49 49 49 50 50 50 50 50 50 50 50 49 48 49 50 49 47 45 45 44 44 43 42 41 41 40 38 39 41 41 41 39 37 36 39 42 43 43 42 42 41 36 30 31 35 37 36 36 36 36 37 39 39 39 40
71 63 58 59 60 57 54 53 54 55 55 54 52 52 53 55 56 56 56 56 56 55 56 57 56 55 53 52 52 53 53 53 53 53 52 52 53 53 52 52 51 51 50 50 50 50 48 47 46 46 45 44 43 43 42 40 39 40 42 43 42 41 39 39 40 43 44 44 42 42 42 38 33 33 38 40 39 38 38 37 37 39 40 41 40
77 72 65 60 58 56 55 54 53 54 54 54 52 52 53 56 57 57 57 58 58 58 58 59 59 57 57 57 56 56 57 57 57 56 56 55 55 54 53 53 53 54 54 52 49 48 47 47 47 46 45 44 44 44 43 42 41 41 43 45 45 44 42 40 41 44 45 44 42 42 40 36 33 36 41 42 40 38 38 38 38 39 39 39 38
80 77 72 68 65 64 62 59 56 54 53 52 52 51 52 54 56 57 57 58 59 60 60 61 61 61 61 60 60 59 60 61 61 59 59 58 58 56 55 55 55 57 58 55 50 48 47 47 46 45 44 45 46 45 45 44 43 42 44 46 46 44 42 41 43 46 47 46 46 46 42 36 35 38 42 42 41 40 40 41 40 39 39 39 39
85 82 78 73 70 68 67 65 62 58 55 52 51 51 52 52 53 54 55 56 57 59 60 61 62 62 63 63 62 62 63 64 64 63 62 62 61 60 60 59 59 60 60 58 53 51 49 48 48 46 45 46 47 46 46 47 46 45 45 46 45 44 43 43 45 49 50 49 47 44 39 35 36 40 42 42 43 43 44 43 42 41 40 40 41
87 86 83 79 75 71 68 67 66 63 59 55 53 52 53 53 52 51 51 53 54 56 58 59 60 61 62 63 63 63 64 65 66 65 65 65 64 64 64 63 62 62 61 60 57 53 51 51 51 49 48 49 48 47 47 48 48 47 47 45 44 45 46 46 48 51 51 48 42 36 34 35 40 43 44 44 44 45 46 45 44 43 42 42 42
87 87 85 83 80 76 71 68 67 66 62 59 57 55 55 55 53 50 50 50 51 53 55 57 57 58 58 59 60 61 62 64 65 65 66 67 66 67 67 67 66 65 65 65 62 57 53 54 55 54 52 51 51 50 50 49 49 49 49 47 45 47 49 50 50 48 45 40 36 34 35 39 42 44 44 44 45 46 46 45 44 44 44 44 44
85 86 86 84 82 79 74 70 69 68 65 62 59 57 56 55 53 51 50 50 50 51 53 54 54 54 54 55 57 59 60 61 61 62 64 65 66 66 68 70 70 69 68 69 69 64 57 55 57 57 55 54 54 54 52 50 50 51 51 49 48 49 51 52 50 46 39 35 35 37 40 41 42 41 41 42 45 46 46 45 45 45 45 45 45
82 83 85 85 84 81 77 72 70 70 68 65 61 57 56 55 54 52 51 50 50 50 51 51 51 52 52 52 54 57 59 59 59 60 62 62 63 65 68 71 72 72 71 73 75 71 65 61 61 61 59 58 57 54 51 49 50 51 52 52 52 52 52 52 49 45 39 36 36 40 44 46 45 44 44 46 47 48 47 46 47 47 47 47 47
79 80 82 83 84 83 79 75 72 71 70 68 64 60 57 56 55 54 52 51 50 50 49 48 48 49 51 51 52 54 56 58 58 58 59 61 63 65 67 69 70 71 73 75 76 73 68 65 65 65 63 61 59 56 54 53 52 50 47 47 49 53 56 56 51 43 38 37 39 43 46 48 49 49 49 49 48 48 48 48 48 48 49 49 50
75 76 78 80 82 83 81 78 75 73 72 70 67 64 59 56 55 55 54 52 51 50 49 48 48 48 49 51 52 54 56 57 57 58 60 62 63 63 63 62 62 63 66 68 70 69 66 65 67 68 67 64 61 58 57 57 56 53 50 47 46 47 51 54 52 45 41 41 44 46 47 49 51 52 51 50 49 50 50 50 50 50 51 52 53
69 70 72 75 79 81 81 80 77 74 73 71 69 66 61 57 56 56 55 54 53 52 50 50 49 49 49 50 52 54 55 56 56 58 60 61 61 60 59 57 56 55 55 57 58 59 59 61 64 66 67 66 64 61 60 60 60 59 57 56 55 53 49 47 46 45 44 45 47 48 50 52 54 53 51 50 51 52 53 53 53 54 54 55 56
63 63 65 69 74 78 80 80 78 75 73 72 71 68 62 59 58 57 56 54 54 52 52 52 51 50 50 51 51 53 54 54 55 57 60 60 59 59 59 57 54 52 52 53 54 54 56 59 60 60 62 63 63 61 60 60 60 59 57 57 61 64 60 51 46 45 46 48 49 50 52 54 56 57 55 53 53 55 56 56 57 58 58 59 61
60 60 60 64 70 75 79 80 78 75 73 73 72 70 65 61 60 58 56 54 53 52 52 53 53 51 51 51 51 51 52 51 52 54 56 55 56 60 62 61 58 55 53 53 55 56 57 59 60 60 62 65 66 63 59 58 59 60 58 56 59 64 67 64 56 50 49 50 51 52 53 54 57 59 58 56 55 56 58 59 60 61 62 63 64
Wind_Direction
205 203 203 203 201 197 195 197 201 201 199 200 206 212 214 214 216 218 219 218 214 210 205 197 190 186 186 190 193 195 198 199 194 188 186 185 181 176 171 165 162 160 160 161 162 167 171 174 175 179 184 188 189 188 186 182 178 176 176 175 174 173 174 179 187 194 196 199 207 214 225 240 248 254 265 277 285 294 309 336 345 342 1 21 23
208 207 206 205 204 201 197 197 201 201 196 196 202 208 212 215 216 217 221 223 220 216 210 202 194 189 188 190 193 197 199 201 200 194 189 188 186 182 176 171 167 163 159 157 158 163 169 173 175 178 182 186 189 192 194 192 189 185 183 182 182 179 179 183 191 198 206 211 218 223 233 248 254 258 269 281 289 295 300 307 317 326 348 12 16
208 210 208 207 207 205 201 199 200 201 197 195 200 205 207 211 213 215 218 221 222 221 216 207 199 193 191 192 194 198 201 202 204 201 195 191 190 187 182 178 174 169 164 159 157 158 163 170 176 179 183 186 188 192 196 201 201 199 195 193 192 191 189 192 198 203 211 220 225 230 239 250 256 257 266 279 289 297 299 299 305 316 331 352 1
208 210 209 209 208 208 205 202 201 201 199 197 199 204 206 207 208 211 216 219 220 221 220 213 206 200 195 194 196 200 202 204 207 208 202 197 195 192 188 185 182 177 172 167 162 159 160 164 170 176 182 187 191 195 198 202 207 210 210 209 207 206 205 206 209 211 218 225 230 236 243 251 258 262 267 276 285 293 297 299 304 311 320 334 344
209 209 210 210 210 208 208 207 204 203 202 201 201 204 206 207 206 208 213 216 218 220 219 215 210 206 201 199 200 202 203 204 208 211 209 204 199 197 194 191 189 186 181 175 170 168 165 165 167 170 176 181 188 195 200 204 208 214 218 220 221 221 222 223 223 223 227 231 234 239 246 252 259 266 270 276 283 289 294 298 301 305 309 318 329
211 209 209 210 210 209 208 209 208 207 206 205 205 206 207 207 207 208 210 213 216 218 218 215 211 210 207 204 205 206 206 206 208 211 213 210 205 202 200 197 194 192 189 185 180 176 174 174 175 176 178 181 185 192 200 206 212 217 222 226 228 230 233 234 233 234 236 238 239 242 248 253 259 266 270 275 281 285 288 293 297 300 303 309 318
211 209 209 209 210 209 208 209 210 210 209 208 208 208 208 208 208 209 211 213 215 217 218 216 213 213 212 209 208 210 210 209 210 211 213 214 211 207 204 202 199 197 195 192 189 186 183 183 185 187 190 194 197 201 207 212 219 224 227 230 233 237 240 241 242 243 244 244 244 245 248 251 256 263 268 273 278 281 282 286 291 294 296 301 308
210 210 210 209 209 209 209 209 210 212 212 211 210 209 210 210 210 211 212 213 216 218 220 219 217 216 216 213 211 212 213 212 212 212 213 214 214 213 209 206 203 202 200 196 193 192 192 193 195 199 204 211 217 223 229 233 237 240 241 241 243 246 247 247 248 250 251 252 252 252 252 253 256 260 265 270 274 277 280 282 286 290 292 296 302
209 210 210 209 209 209 209 210 211 212 213 213 212 211 211 212 213 213 214 214 216 218 220 222 222 222 221 219 215 213 213 214 214 213 213 214 215 215 214 210 208 206 204 202 199 198 198 201 205 209 213 220 228 235 242 248 253 256 258 257 257 259 259 258 256 256 258 259 260 260 258 257 260 262 263 266 269 273 279 281 283 288 292 296 301
211 210 210 209 209 210 210 211 211 213 214 214 214 212 212 212 213 214 215 215 216 218 220 221 223 225 227 225 221 215 213 215 216 215 214 215 216 217 216 214 212 210 208 206 206 205 205 208 211 215 220 226 231 237 244 251 256 261 264 264 263 266 269 269 267 264 263 264 266 268 267 265 267 268 265 265 266 268 273 278 280 285 290 295 300
215 212 210 210 210 211 212 212 212 213 214 214 215 214 213 214 214 214 215 216 218 219 221 221 222 225 228 229 225 219 216 217 218 218 216 216 217 218 218 217 215 213 212 211 211 211 212 213 215 219 224 229 234 238 242 246 250 256 262 266 266 267 269 271 272 272 272 272 272 276 276 273 276 278 274 270 269 267 269 272 276 280 285 291 296
218 216 215 214 213 212 214 215 215 214 214 215 215 215 215 215 215 215 215 217 219 221 222 222 222 224 227 230 229 223 219 219 221 221 219 218 218 219 219 219 219 218 216 216 216 218 219 220 222 224 227 231 235 238 241 243 245 250 257 264 267 267 268 270 274 278 280 281 281 282 281 280 282 286 284 279 275 272 270 271 273 276 280 285 290
218 218 219 221 219 216 216 217 217 216 216 216 216 216 216 216 216 216 216 217 220 222 223 223 224 225 227 230 230 227 222 222 222 223 222 222 221 220 220 220 220 220 220 220 221 222 224 226 229 231 233 235 236 239 242 245 247 250 255 261 265 267 269 271 275 279 282 286 287 286 286 289 291 291 292 290 284 279 277 276 276 276 277 280 284
218 217 220 224 225 224 222 221 220 219 219 219 219 218 218 217 217 217 217 218 220 222 224 225 225 226 227 229 230 230 227 226 225 224 225 225 225 223 222 221 221 221 222 223 224 225 227 228 231 234 237 239 241 243 246 248 251 254 258 262 265 267 270 273 275 278 282 286 288 287 290 297 299 297 298 299 292 286 283 282 281 280 278 278 280
220 218 219 221 223 224 224 223 222 222 222 221 220 220 219 218 218 218 218 220 221 222 224 225 226 227 227 228 229 231 231 230 229 228 227 228 229 228 226 224 222 222 223 224 226 228 230 231 233 237 239 242 244 246 247 249 252 255 258 261 264 267 271 272 274 276 280 282 285 287 291 297 300 299 300 303 301 295 291 285 282 282 283 281 279
222 220 220 221 221 221 221 221 221 222 224 224 223 222 221 220 219 219 219 220 221 222 224 225 226 227 227 228 229 230 231 233 233 232 231 231 231 232 230 228 225 224 224 225 227 230 232 234 236 239 242 244 246 247 248 249 251 254 257 259 262 267 269 270 272 274 276 278 280 285 291 295 298 298 300 303 305 305 303 296 288 288 290 288 284
223 221 220 220 219 217 217 219 220 221 224 226 225 224 223 221 220 220 220 220 221 223 224 225 226 227 228 228 229 229 231 233 235 235 234 234 234 234 233 231 229 227 226 226 228 230 234 236 238 241 244 247 248 248 247 248 250 252 255 257 259 264 268 269 271 273 275 277 279 284 288 292 294 296 298 300 302 306 308 304 298 297 298 295 291
221 221 220 221 220 218 217 217 217 220 224 226 226 226 225 224 223 223 222 221 222 223 225 226 227 228 230 230 230 230 232 234 236 237 237 238 238 237 235 234 232 231 229 229 230 232 234 237 240 242 245 248 250 251 250 250 251 252 254 256 258 261 264 267 270 273 276 279 282 284 286 288 290 293 294 296 298 301 304 303 302 302 300 295 292
226 223 223 225 225 224 223 222 219 219 222 225 226 227 227 227 227 227 226 225 225 226 227 228 229 230 232 232 232 232 233 235 238 239 240 240 240 239 238 237 235 234 233 232 233 234 235 238 240 242 244 248 251 253 254 253 253 254 256 257 259 261 262 264 268 272 275 277 279 280 282 284 287 289 291 293 295 296 298 299 300 300 298 294 292
233 229 227 226 226 225 226 225 222 220 221 224 226 227 229 230 231 232 231 230 230 230 231 231 232 233 233 234 235 234 234 236 238 239 240 241 241 241 240 239 237 236 235 235 235 236 237 239 241 242 244 246 249 252 255 255 255 255 257 259 260 261 262 264 267 269 271 274 275 276 278 281 284 287 290 293 294 295 295 296 297 298 297 296 294
235 233 229 226 225 226 226 224 221 221 221 221 222 225 228 231 233 235 236 236 236 236 236 236 235 235 236 236 237 238 237 238 239 241 242 243 243 243 243 242 241 239 238 237 237 238 240 242 244 245 246 248 249 252 254 255 256 257 258 260 261 261 263 266 267 268 269 271 273 275 278 279 281 283 286 289 292 293 294 294 294 295 295 294 293
235 235 232 227 225 226 225 222 220 220 220 219 218 220 223 227 231 234 236 238 239 239 240 240 239 239 239 240 240 241 242 242 242 243 245 245 246 246 246 245 245 243 241 240 239 240 242 244 246 248 250 251 252 254 255 257 257 258 259 261 262 264 266 267 268 268 268 269 272 276 278 279 281 283 284 285 287 290 292 293 293 293 294 293 292
232 234 234 232 229 227 224 221 217 217 218 219 218 219 221 224 228 231 234 236 238 239 241 242 242 242 241 242 242 243 244 245 245 246 247 247 247 247 247 247 247 247 246 244 243 243 243 244 246 249 251 253 255 256 258 259 260 260 261 262 263 265 267 268 269 268 268 269 272 276 279 281 284 286 285 284 286 288 290 290 291 291 292 291 291
230 232 234 234 232 228 224 220 216 214 215 218 220 221 222 225 228 231 234 236 238 239 240 241 242 242 242 242 242 243 244 245 246 247 249 249 249 249 249 248 248 249 250 249 249 248 247 247 248 249 251 253 255 258 260 262 263 263 263 264 264 265 266 267 267 266 267 269 272 276 279 283 285 285 284 286 288 289 289 289 290 290 291 291 291
229 230 232 233 232 229 227 222 217 214 214 217 220 222 224 226 229 232 234 236 238 239 239 240 241 241 241 241 241 242 244 245 247 249 250 251 251 251 250 249 249 250 251 252 252 253 252 252 252 252 253 254 256 259 261 263 264 264 264 265 266 266 265 264 262 263 265 267 270 274 278 281 281 281 283 285 287 288 288 289 292 294 296 297 297
228 229 231 232 230 229 227 224 221 219 217 218 219 222 224 227 229 232 235 237 239 239 240 241 242 242 242 241 240 241 243 245 247 249 251 252 253 253 252 252 251 251 251 251 252 253 253 254 255 255 255 255 256 259 261 263 264 266 266 267 267 266 264 261 259 259 261 263 267 271 273 274 274 275 277 279 280 282 285 288 292 297 301 305 308
229 229 230 230 229 227 226 225 225 224 222 221 221 223 225 228 230 232 235 238 240 241 241 242 243 243 242 240 239 239 241 243 245 248 251 252 253 254 254 255 255 254 253 252 251 251 251 252 254 257 258 259 260 262 263 265 266 268 269 269 268 266 264 261 258 258 258 259 262 265 265 265 266 267 270 272 276 280 284 287 289 292 297 304 310
230 230 228 226 227 227 226 226 226 225 225 225 225 225 226 229 231 232 235 237 238 240 241 241 241 241 240 240 240 239 239 240 242 245 248 250 251 253 255 256 258 258 257 256 255 254 253 253 255 258 261 264 266 267 268 268 269 270 271 271 269 266 264 261 259 257 255 256 258 259 257 257 259 261 264 266 270 273 277 282 287 292 297 302 304
232 232 227 224 227 230 228 227 229 230 229 229 229 229 229 230 231 232 234 236 237 237 238 240 240 240 240 240 241 241 240 239 240 242 244 246 249 252 255 257 258 259 260 260 259 259 260 260 261 263 265 267 269 270 271 271 271 271 272 270 268 266 262 259 258 255 254 255 256 254 251 251 252 253 255 258 261 265 271 279 287 293 297 298 299
232 233 226 222 226 231 230 229 231 232 233 233 232 232 231 232 233 234 235 237 238 236 235 237 238 239 240 241 242 243 242 239 239 241 244 247 249 252 255 257 257 258 259 260 261 263 265 266 266 267 267 268 269 270 271 271 271 271 270 268 266 264 261 260 260 259 259 261 258 254 250 247 244 242 244 249 254 262 272 280 285 289 292 294 297
231 231 226 223 224 227 228 230 232 233 234 234 234 234 233 233 235 236 237 240 240 236 233 234 236 238 240 241 242 242 241 239 239 243 244 245 246 248 252 255 258 259 258 258 259 262 265 267 269 270 270 270 270 270 271 271 270 268 267 266 265 264 263 264 263 265 267 267 264 260 254 245 239 236 238 242 251 263 273 279 282 287 291 294 298
227 227 225 225 226 227 228 230 232 233 234 235 235 235 235 234 235 236 239 242 240 234 230 231 234 238 240 241 241 241 240 239 240 242 244 244 244 246 248 252 256 260 261 260 260 261 264 268 270 271 272 273 272 270 270 270 269 267 267 266 265 263 263 261 260 264 267 263 260 262 258 250 247 247 246 247 257 268 273 278 283 286 290 294 298
224 224 224 225 227 229 229 229 231 232 234 235 236 236 235 234 233 234 237 240 236 228 226 229 234 237 239 240 241 241 240 239 240 243 244 244 244 246 248 250 253 258 263 265 265 264 266 268 270 271 273 273 271 269 268 268 269 268 266 265 263 262 262 259 258 262 262 253 250 255 256 254 257 261 259 258 265 270 274 278 282 285 290 295 297
223 222 222 224 227 228 229 229 231 232 233 235 236 235 233 233 232 232 234 236 231 225 226 230 234 237 239 239 239 239 239 240 241 244 245 245 245 246 248 249 252 256 261 265 267 268 269 270 270 271 272 272 270 268 266 267 269 267 264 262 261 261 261 259 258 260 257 246 241 243 245 248 257 266 268 268 270 272 275 279 282 286 290 293 295
225 222 221 224 226 228 230 231 231 231 232 234 235 233 231 231 232 231 231 232 230 227 228 232 235 237 238 239 239 240 240 240 241 243 245 246 246 247 248 249 251 255 259 263 266 267 269 270 270 271 272 273 270 266 264 265 266 264 261 261 262 262 262 261 261 261 257 248 242 241 241 245 256 267 271 273 273 273 276 279 283 286 289 291 294
228 226 225 224 226 228 230 232 232 231 231 232 234 234 232 232 231 231 230 230 230 229 230 232 234 236 238 240 242 242 242 243 244 245 246 247 247 248 250 252 253 254 258 262 264 266 267 268 269 269 271 272 271 267 264 264 264 262 261 262 263 265 266 265 264 265 263 254 247 243 242 245 255 265 269 272 273 274 276 279 282 285 287 290 294
227 228 226 225 224 226 229 231 232 232 231 232 234 236 237 236 235 234 234 233 232 231 231 232 234 236 238 241 243 244 244 245 246 247 249 250 251 252 254 255 256 257 259 262 265 267 268 268 268 268 268 270 271 268 264 263 263 261 259 260 261 264 264 262 262 265 265 261 254 246 242 244 253 262 266 270 273 274 276 279 282 285 288 290 293
228 227 225 223 223 225 228 229 229 230 231 232 234 237 238 238 238 238 237 237 236 235 233 233 234 236 238 241 243 244 245 246 246 248 249 251 253 255 256 257 258 259 260 262 265 268 269 269 268 267 266 267 269 267 264 263 261 257 255 256 258 260 259 258 258 260 261 261 259 255 251 251 257 262 265 269 272 273 275 279 283 286 289 291 293
230 230 227 224 222 225 227 228 228 229 230 232 235 237 238 238 238 239 239 240 240 239 237 236 236 236 237 239 241 243 245 247 248 249 249 251 252 254 255 257 258 259 259 261 263 266 268 268 267 265 263 264 265 265 262 260 258 253 252 254 256 256 257 256 256 258 260 260 259 258 257 257 260 264 266 268 270 272 276 279 282 286 289 291 293
232 233 232 230 229 230 232 232 232 231 232 233 236 237 238 238 238 239 240 241 241 241 240 239 238 238 238 239 240 243 246 248 249 250 251 252 253 254 255 256 257 258 258 258 259 261 264 265 264 263 262 262 263 263 260 258 255 252 250 251 253 254 256 256 256 260 262 260 258 258 258 258 260 263 267 270 273 276 280 282 284 287 289 289 289
234 234 234 233 235 236 237 237 236 236 236 236 237 237 237 238 238 238 240 242 243 243 243 243 242 242 241 241 241 244 247 249 251 252 254 255 256 256 255 255 256 257 257 256 253 254 259 262 262 262 262 261 261 260 258 256 254 252 250 250 252 253 255 256 257 259 260 260 261 261 259 258 260 263 267 271 275 278 281 283 284 286 287 286 286
235 235 234 234 235 237 238 238 238 239 240 240 239 238 238 238 237 237 240 243 245 246 246 246 246 246 245 244 244 246 249 251 252 253 255 257 258 259 258 256 255 256 257 256 252 250 253 259 260 260 261 261 261 260 258 257 256 254 252 251 251 252 253 254 255 256 258 260 262 261 257 257 261 265 268 271 274 277 279 281 283 283 284 284 284
236 236 236 235 234 235 237 239 239 240 242 243 243 242 241 239 237 238 241 245 248 249 249 249 249 248 248 247 247 249 251 252 253 254 255 257 258 260 260 258 257 257 258 258 255 251 250 255 258 259 259 261 261 260 259 258 257 256 253 251 251 253 254 255 255 256 257 257 258 259 259 261 264 267 269 271 274 276 278 280 281 283 283 284 285
237 237 237 236 235 235 236 238 240 241 243 244 245 245 244 242 239 240 243 246 249 252 252 252 251 250 250 249 249 250 252 253 253 254 255 256 258 259 260 259 258 257 257 258 258 254 251 254 257 258 257 259 260 260 259 259 259 257 255 254 254 253 254 256 257 255 254 255 261 265 266 267 269 270 270 271 273 276 277 278 280 282 283 283 284
238 238 237 237 237 236 235 237 240 242 242 243 244 245 246 245 244 243 244 247 250 252 252 252 253 252 251 250 249 250 251 253 254 255 256 257 258 260 261 260 259 259 258 257 258 257 254 253 255 256 256 257 258 258 257 257 258 259 260 260 258 255 254 255 255 253 253 260 268 269 268 269 271 270 270 273 276 277 277 278 280 281 281 281 281
239 239 238 238 238 237 236 236 239 242 242 242 243 244 246 248 248 247 246 247 249 251 251 251 252 253 252 251 249 249 251 253 254 255 257 258 259 260 261 261 261 261 260 259 259 257 255 253 253 253 254 255 257 259 257 255 254 256 258 259 259 258 257 256 256 257 260 264 265 264 266 269 271 272 273 276 278 277 276 277 278 279 279 279 279
239 239 239 238 238 239 238 236 238 241 243 243 243 244 247 250 251 250 248 247 247 248 249 249 251 252 253 252 251 251 252 253 253 254 256 257 258 259 261 262 262 262 262 261 258 256 253 251 250 250 251 254 256 258 258 257 257 258 259 258 257 257 257 257 259 261 261 260 260 261 264 267 270 273 275 275 275 274 274 274 275 275 276 276 277
238 239 240 239 239 240 241 239 239 240 243 245 244 243 246 250 252 251 250 249 248 247 248 248 249 251 251 251 252 252 252 252 253 253 255 257 258 259 261 264 265 266 265 262 257 253 249 246 245 246 249 253 254 255 256 258 260 262 263 262 260 257 253 251 253 255 256 257 258 260 262 264 267 270 271 271 271 271 271 271 272 273 274 274 275
239 239 240 240 240 241 243 243 241 241 242 244 243 242 244 249 251 250 251 251 250 249 249 249 250 250 250 249 249 249 250 251 252 252 254 257 260 262 264 266 267 268 267 262 256 251 246 243 242 245 249 251 252 252 253 255 259 262 263 262 262 261 256 247 243 245 250 254 257 259 260 263 266 269 270 270 269 270 270 271 272 272 273 274 275
238 239 240 241 241 242 244 245 244 242 241 242 242 242 244 247 248 248 249 251 251 252 252 252 251 252 252 250 249 249 250 250 251 252 255 257 259 262 264 266 265 265 264 260 255 252 248 244 243 245 248 249 250 251 252 253 256 260 261 260 259 261 261 254 245 242 246 252 257 261 263 265 268 271 271 269 269 269 270 271 272 273 275 276 277
237 238 240 241 242 243 244 245 245 243 242 241 241 242 244 246 246 246 247 248 249 251 253 253 252 253 254 252 250 250 250 250 251 254 257 259 261 263 263 261 259 258 258 256 254 252 250 248 247 246 246 247 248 250 251 252 253 256 260 261 260 260 261 259 254 251 250 253 257 261 263 266 270 272 271 268 268 269 271 272 273 274 276 277 278
Height
5923 5925 5926 5928 5930 5931 5933 5935 5936 5938 5940 5941 5943 5944 5946 5947 5948 5949 5950 5951 5952 5952 5953 5953 5954 5955 5956 5957 5957 5957 5957 5957 5957 5958 5958 5958 5959 5959 5960 5960 5960 5960 5960 5960 5961 5961 5962 5963 5964 5964 5965 5966 5967 5968 5968 5969 5969 5970 5971 5971 5972 5972 5973 5973 5974 5974 5974 5975 5975 5975 5975 5975 5975 5974 5974 5974 5973 5973 5973 5973 5973 5973 5973 5973 5972
5921 5923 5924 5926 5928 5930 5931 5933 5934 5936 5938 5940 5941 5942 5944 5945 5947 5948 5949 5950 5951 5951 5952 5953 5953 5954 5955 5956 5956 5957 5957 5957 5957 5957 5958 5958 5958 5959 5959 5960 5960 5960 5960 5961 5961 5961 5962 5963 5963 5964 5965 5966 5967 5968 5969 5969 5969 5970 5970 5971 5971 5972 5972 5972 5973 5973 5974 5974 5974 5974 5974 5974 5974 5974 5973 5973 5973 5972 5972 5972 5973 5973 5973 5972 5972
5919 5920 5922 5924 5926 5927 5929 5931 5932 5934 5936 5938 5939 5940 5941 5943 5944 5946 5947 5948 5950 5950 5951 5952 5953 5953 5954 5954 5955 5956 5956 5956 5957 5957 5957 5957 5958 5958 5959 5959 5960 5960 5960 5961 5961 5962 5962 5963 5964 5964 5965 5966 5967 5967 5968 5969 5969 5970 5970 5970 5971 5971 5971 5972 5972 5972 5973 5973 5973 5973 5973 5973 5973 5973 5973 5972 5972 5972 5972 5972 5972 5972 5972 5971 5971
5916 5918 5920 5922 5923 5925 5927 5929 5931 5932 5934 5935 5936 5937 5939 5940 5942 5944 5945 5946 5948 5949 5950 5951 5952 5953 5953 5953 5954 5954 5955 5955 5956 5956 5956 5957 5957 5958 5958 5959 5959 5960 5960 5961 5961 5962 5962 5963 5964 5964 5965 5966 5966 5967 5968 5968 5969 5969 5970 5970 5970 5971 5971 5971 5971 5972 5972 5972 5972 5972 5972 5972 5972 5972 5972 5971 5971 5971 5971 5972 5972 5971 5971 5971 5970
5913 5915 5917 5919 5921 5923 5925 5927 5929 5931 5932 5933 5934 5935 5936 5938 5939 5941 5942 5944 5946 5947 5948 5949 5951 5951 5952 5952 5952 5953 5953 5954 5954 5955 5956 5956 5957 5957 5958 5958 5959 5959 5960 5961 5961 5962 5962 5963 5964 5964 5965 5966 5966 5967 5967 5968 5968 5969 5969 5970 5970 5970 5971 5971 5971 5971 5971 5971 5971 5971 5971 5971 5971 5971 5971 5970 5970 5970 5971 5971 5971 5971 5970 5970 5970
5909 5912 5914 5916 5918 5920 5922 5924 5926 5928 5929 5930 5931 5932 5934 5935 5937 5939 5940 5942 5943 5944 5946 5947 5948 5949 5950 5951 5951 5951 5952 5952 5953 5954 5955 5956 5957 5957 5958 5958 5958 5959 5959 5960 5961 5962 5962 5963 5963 5964 5965 5965 5966 5966 5967 5967 5968 5968 5969 5969 5969 5969 5970 5970 5970 5970 5970 5970 5970 5970 5970 5969 5969 5969 5969 5970 5969 5970 5970 5969 5969 5969 5969 5968 5968
5905 5908 5910 5912 5915 5917 5919 5921 5923 5924 5925 5927 5928 5930 5931 5933 5935 5936 5938 5939 5941 5942 5943 5945 5946 5947 5948 5949 5950 5950 5951 5951 5952 5953 5954 5955 5956 5957 5957 5958 5958 5959 5959 5960 5960 5961 5962 5963 5963 5964 5965 5965 5966 5966 5966 5967 5967 5967 5968 5968 5968 5968 5968 5968 5969 5969 5968 5969 5969 5968 5968 5968 5968 5968 5968 5968 5968 5968 5968 5967 5967 5967 5967 5967 5967
5902 5904 5906 5909 5911 5914 5916 5918 5919 5920 5922 5923 5925 5927 5929 5931 5932 5934 5935 5937 5939 5941 5942 5943 5944 5945 5946 5947 5948 5948 5949 5950 5951 5951 5952 5953 5955 5956 5956 5957 5958 5958 5959 5959 5960 5961 5961 5962 5963 5963 5964 5965 5965 5966 5966 5966 5966 5966 5967 5967 5967 5967 5967 5967 5967 5967 5967 5967 5967 5967 5967 5967 5967 5966 5967 5967 5967 5967 5966 5966 5965 5965 5965 5965 5965
5898 5900 5903 5905 5908 5910 5912 5914 5915 5917 5918 5920 5922 5924 5926 5928 5929 5931 5933 5935 5937 5939 5940 5941 5942 5943 5944 5945 5946 5947 5948 5948 5949 5950 5951 5952 5953 5954 5955 5956 5957 5957 5958 5959 5959 5960 5960 5961 5962 5962 5963 5964 5964 5965 5965 5965 5965 5965 5966 5966 5966 5966 5966 5966 5966 5966 5966 5966 5965 5965 5965 5965 5965 5965 5965 5966 5966 5965 5964 5964 5963 5962 5962 5962 5962
5895 5897 5899 5902 5904 5906 5908 5910 5911 5913 5915 5917 5919 5921 5923 5924 5926 5928 5930 5932 5934 5936 5938 5939 5941 5942 5942 5943 5944 5945 5946 5947 5947 5948 5949 5950 5951 5952 5953 5955 5955 5956 5957 5958 5958 5959 5959 5960 5960 5961 5962 5962 5963 5963 5963 5964 5964 5964 5964 5964 5965 5964 5964 5964 5964 5964 5964 5964 5964 5963 5964 5964 5963 5963 5964 5964 5964 5963 5963 5962 5961 5961 5960 5959 5959
5893 5895 5897 5898 5900 5902 5904 5906 5908 5909 5911 5913 5915 5917 5919 5921 5923 5925 5927 5929 5931 5933 5934 5936 5938 5939 5940 5941 5942 5944 5945 5945 5946 5946 5947 5948 5949 5950 5952 5953 5954 5955 5956 5957 5957 5958 5958 5959 5959 5960 5960 5961 5961 5961 5962 5962 5962 5962 5962 5963 5963 5963 5963 5963 5962 5962 5962 5963 5962 5962 5962 5962 5961 5961 5962 5962 5962 5961 5961 5960 5960 5959 5959 5958 5958
5892 5894 5895 5895 5896 5898 5900 5902 5904 5906 5908 5910 5911 5913 5915 5917 5919 5921 5924 5926 5927 5929 5931 5933 5935 5936 5937 5938 5940 5942 5943 5943 5944 5945 5946 5947 5947 5948 5949 5951 5952 5953 5954 5955 5956 5956 5957 5957 5958 5958 5959 5959 5959 5960 5960 5960 5960 5960 5960 5961 5961 5961 5961 5961 5961 5961 5961 5961 5961 5961 5960 5960 5960 5960 5960 5960 5960 5960 5959 5958 5958 5957 5957 5956 5956
5890 5892 5893 5893 5894 5896 5897 5899 5901 5903 5905 5906 5907 5909 5910 5913 5915 5918 5920 5922 5923 5925 5928 5929 5931 5932 5934 5936 5937 5939 5940 5941 5942 5943 5944 5944 5945 5946 5947 5948 5950 5951 5952 5953 5954 5955 5955 5956 5956 5957 5957 5957 5957 5957 5957 5957 5958 5958 5958 5959 5959 5959 5959 5959 5959 5959 5959 5959 5959 5959 5959 5959 5959 5958 5958 5958 5958 5958 5957 5956 5956 5956 5955 5954 5953
5886 5888 5889 5891 5893 5894 5896 5897 5899 5901 5902 5903 5904 5905 5907 5909 5911 5914 5916 5918 5920 5922 5924 5926 5928 5929 5931 5932 5934 5936 5937 5939 5939 5940 5941 5942 5943 5944 5945 5946 5947 5948 5950 5951 5952 5953 5953 5954 5954 5954 5954 5954 5954 5954 5955 5955 5955 5956 5956 5956 5956 5956 5957 5957 5957 5957 5957 5957 5957 5957 5957 5957 5958 5957 5956 5957 5956 5956 5955 5955 5954 5953 5953 5952 5951
5882 5883 5883 5885 5887 5889 5892 5894 5897 5898 5899 5900 5900 5902 5904 5906 5907 5909 5911 5913 5916 5918 5919 5922 5924 5926 5927 5929 5931 5933 5934 5935 5936 5937 5938 5939 5940 5941 5942 5943 5945 5946 5947 5949 5950 5951 5951 5952 5952 5952 5952 5952 5952 5952 5952 5952 5953 5954 5954 5954 5954 5954 5954 5954 5954 5954 5955 5955 5955 5955 5955 5955 5955 5955 5954 5954 5954 5954 5953 5953 5952 5951 5950 5949 5949
5876 5877 5877 5878 5879 5881 5885 5888 5891 5893 5895 5896 5898 5900 5901 5903 5904 5905 5907 5909 5911 5913 5915 5917 5920 5921 5923 5925 5927 5929 5931 5931 5933 5934 5935 5936 5937 5938 5940 5941 5942 5943 5945 5946 5947 5948 5948 5949 5950 5949 5949 5949 5949 5949 5949 5950 5951 5951 5951 5951 5951 5952 5951 5951 5951 5952 5952 5953 5953 5953 5953 5952 5953 5953 5952 5952 5952 5952 5951 5951 5950 5949 5948 5947 5946
5869 5872 5873 5874 5875 5876 5878 5882 5885 5888 5890 5893 5895 5897 5899 5900 5900 5901 5903 5905 5907 5909 5911 5913 5915 5917 5919 5921 5924 5926 5927 5928 5929 5930 5931 5932 5934 5935 5937 5938 5939 5941 5942 5942 5944 5945 5945 5946 5947 5947 5947 5946 5946 5946 5946 5947 5948 5948 5949 5949 5949 5949 5949 5948 5948 5949 5950 5950 5951 5951 5951 5950 5950 5950 5950 5950 5950 5949 5949 5948 5947 5946 5946 5945 5945
5866 5868 5870 5872 5875 5876 5877 5878 5880 5882 5886 5890 5893 5895 5896 5897 5897 5898 5900 5902 5903 5905 5907 5909 5911 5914 5916 5918 5920 5922 5923 5924 5925 5927 5928 5929 5931 5932 5934 5935 5936 5938 5939 5940 5941 5942 5942 5943 5944 5944 5944 5944 5943 5943 5943 5945 5946 5946 5946 5946 5947 5947 5946 5945 5946 5947 5947 5948 5948 5949 5948 5948 5948 5948 5948 5947 5947 5946 5946 5945 5944 5943 5943 5943 5942
5865 5867 5870 5874 5877 5878 5879 5879 5879 5880 5883 5887 5889 5891 5893 5895 5895 5896 5898 5900 5901 5902 5904 5907 5909 5911 5913 5915 5917 5919 5920 5920 5922 5924 5925 5926 5927 5929 5930 5932 5934 5935 5936 5937 5938 5938 5939 5940 5940 5941 5942 5941 5940 5939 5940 5941 5943 5943 5943 5943 5945 5945 5943 5942 5944 5945 5945 5946 5946 5946 5946 5946 5945 5945 5945 5944 5944 5944 5943 5942 5941 5941 5941 5940 5939
5864 5866 5869 5872 5874 5875 5877 5878 5878 5878 5880 5883 5886 5888 5890 5892 5893 5895 5897 5898 5899 5900 5902 5904 5907 5908 5910 5912 5914 5915 5917 5917 5918 5920 5921 5922 5924 5925 5927 5929 5931 5932 5933 5933 5934 5935 5936 5936 5937 5938 5938 5938 5937 5936 5936 5938 5939 5940 5940 5941 5942 5942 5939 5939 5941 5943 5943 5944 5944 5944 5944 5943 5943 5942 5942 5941 5941 5941 5940 5939 5939 5938 5938 5937 5936
5861 5863 5864 5866 5868 5870 5872 5873 5874 5876 5877 5880 5882 5885 5887 5889 5891 5893 5895 5896 5897 5899 5900 5902 5904 5905 5907 5909 5911 5912 5913 5914 5914 5916 5917 5919 5920 5922 5923 5926 5928 5928 5929 5929 5930 5931 5932 5933 5933 5933 5934 5934 5934 5933 5933 5934 5936 5937 5938 5939 5939 5938 5936 5937 5939 5940 5940 5941 5941 5941 5941 5941 5940 5940 5939 5938 5938 5938 5938 5937 5936 5936 5936 5935 5934
5857 5858 5859 5860 5862 5864 5866 5868 5869 5872 5874 5876 5878 5881 5883 5885 5887 5889 5891 5893 5895 5896 5898 5899 5901 5903 5905 5906 5908 5910 5910 5911 5911 5912 5913 5915 5916 5918 5920 5923 5923 5924 5925 5926 5927 5928 5928 5928 5929 5929 5929 5930 5930 5929 5929 5930 5932 5934 5935 5935 5936 5935 5934 5935 5935 5936 5937 5937 5937 5938 5938 5937 5937 5937 5936 5936 5935 5935 5935 5934 5934 5934 5933 5932 5932
5852 5854 5855 5856 5858 5860 5861 5862 5863 5866 5870 5872 5875 5877 5878 5881 5883 5885 5887 5889 5891 5893 5894 5896 5898 5900 5902 5904 5906 5907 5907 5907 5908 5909 5910 5911 5913 5914 5917 5919 5919 5919 5921 5922 5923 5924 5924 5924 5925 5924 5925 5925 5925 5925 5925 5926 5928 5930 5932 5932 5932 5932 5932 5932 5932 5933 5933 5934 5934 5935 5934 5934 5934 5933 5933 5932 5932 5932 5932 5931 5931 5931 5930 5930 5929
5847 5849 5850 5853 5855 5856 5858 5859 5859 5861 5865 5868 5871 5873 5875 5877 5879 5882 5884 5886 5887 5889 5891 5893 5895 5897 5899 5901 5902 5903 5904 5904 5905 5905 5906 5908 5909 5911 5913 5914 5915 5915 5917 5918 5919 5919 5920 5920 5920 5920 5921 5921 5921 5921 5921 5922 5924 5926 5928 5928 5929 5929 5929 5929 5929 5929 5929 5930 5930 5931 5930 5930 5930 5929 5929 5929 5929 5929 5928 5928 5928 5927 5927 5926 5926
5841 5843 5845 5848 5851 5853 5855 5856 5856 5857 5860 5864 5867 5870 5872 5874 5876 5878 5880 5882 5884 5886 5888 5889 5891 5894 5895 5897 5899 5900 5900 5901 5901 5902 5903 5904 5906 5907 5908 5910 5910 5911 5913 5914 5915 5915 5915 5916 5916 5916 5917 5918 5918 5917 5918 5919 5920 5922 5923 5924 5925 5925 5926 5926 5925 5925 5926 5926 5926 5927 5926 5926 5926 5926 5926 5926 5926 5925 5925 5925 5925 5924 5924 5923 5923
5835 5838 5840 5843 5846 5848 5850 5852 5854 5855 5857 5860 5862 5865 5868 5870 5872 5875 5876 5878 5881 5883 5885 5886 5888 5890 5892 5894 5895 5896 5896 5897 5898 5899 5900 5901 5902 5903 5903 5904 5906 5907 5909 5911 5911 5910 5910 5911 5911 5912 5913 5913 5914 5914 5915 5915 5916 5917 5919 5921 5921 5921 5921 5922 5922 5922 5922 5923 5923 5923 5923 5922 5922 5923 5923 5923 5923 5923 5923 5922 5922 5922 5921 5920 5920
5830 5833 5836 5838 5841 5843 5845 5847 5850 5852 5855 5856 5858 5861 5863 5866 5869 5871 5873 5875 5878 5880 5882 5883 5885 5887 5889 5890 5891 5892 5892 5894 5895 5896 5897 5898 5898 5898 5898 5900 5902 5903 5905 5906 5906 5905 5905 5906 5908 5908 5908 5909 5910 5911 5912 5912 5913 5914 5916 5917 5916 5916 5916 5917 5917 5918 5919 5919 5919 5919 5918 5918 5919 5919 5919 5919 5919 5919 5919 5919 5919 5918 5918 5917 5916
5823 5826 5830 5833 5835 5837 5840 5842 5845 5848 5851 5853 5855 5857 5859 5862 5864 5867 5870 5872 5874 5877 5878 5880 5881 5883 5885 5886 5886 5887 5888 5890 5892 5893 5894 5894 5894 5894 5895 5896 5897 5898 5900 5901 5901 5900 5900 5903 5905 5906 5906 5907 5908 5908 5909 5909 5910 5911 5912 5912 5911 5911 5912 5912 5913 5914 5915 5914 5914 5914 5914 5914 5914 5914 5914 5915 5915 5915 5916 5916 5916 5915 5914 5913 5913
5818 5820 5823 5827 5830 5832 5835 5837 5840 5843 5846 5849 5851 5853 5855 5857 5860 5863 5866 5868 5870 5872 5874 5875 5877 5879 5881 5882 5882 5883 5885 5887 5889 5890 5890 5891 5891 5892 5892 5893 5894 5894 5895 5895 5895 5895 5897 5901 5903 5903 5904 5904 5905 5905 5906 5906 5906 5907 5907 5906 5906 5906 5906 5907 5908 5909 5909 5909 5909 5909 5909 5909 5909 5909 5909 5910 5910 5911 5912 5912 5913 5912 5912 5911 5911
5812 5814 5817 5820 5824 5827 5830 5832 5835 5838 5841 5844 5846 5848 5850 5852 5855 5858 5861 5863 5865 5868 5869 5872 5874 5875 5876 5878 5879 5880 5883 5885 5886 5886 5887 5888 5889 5889 5890 5890 5890 5890 5890 5890 5890 5892 5894 5897 5899 5899 5900 5900 5901 5901 5902 5902 5903 5903 5902 5901 5901 5901 5902 5903 5905 5906 5906 5906 5906 5906 5904 5903 5902 5902 5902 5903 5905 5907 5908 5908 5909 5909 5908 5908 5907
5805 5808 5811 5814 5818 5821 5824 5827 5830 5833 5836 5838 5841 5843 5846 5848 5850 5853 5856 5858 5860 5862 5864 5867 5869 5871 5872 5874 5875 5877 5879 5881 5882 5882 5884 5885 5885 5886 5886 5886 5886 5885 5885 5886 5887 5888 5890 5892 5894 5895 5895 5895 5896 5897 5897 5897 5898 5898 5896 5896 5896 5897 5898 5900 5902 5903 5904 5903 5903 5903 5902 5900 5898 5896 5895 5895 5898 5901 5903 5903 5904 5904 5904 5903 5902
5799 5802 5805 5808 5811 5815 5818 5821 5824 5826 5829 5832 5835 5838 5841 5843 5846 5848 5851 5852 5854 5855 5858 5861 5864 5866 5867 5869 5871 5873 5875 5876 5877 5877 5878 5879 5880 5881 5882 5882 5881 5880 5880 5881 5884 5886 5887 5889 5890 5890 5890 5890 5890 5891 5891 5892 5892 5892 5892 5893 5893 5894 5895 5897 5898 5899 5899 5899 5899 5899 5900 5900 5900 5898 5895 5892 5892 5895 5898 5898 5899 5899 5899 5899 5898
5792 5796 5799 5803 5806 5809 5812 5815 5818 5820 5823 5826 5828 5831 5835 5838 5841 5843 5844 5846 5847 5849 5852 5856 5858 5860 5862 5864 5866 5868 5870 5871 5871 5872 5872 5874 5875 5876 5876 5877 5876 5875 5874 5876 5880 5882 5884 5885 5886 5886 5885 5885 5885 5885 5885 5886 5886 5887 5888 5889 5889 5890 5891 5892 5893 5894 5894 5894 5894 5894 5895 5897 5898 5897 5894 5889 5888 5890 5893 5893 5894 5894 5894 5894 5894
5786 5790 5793 5797 5801 5804 5807 5809 5812 5815 5817 5820 5822 5825 5828 5832 5834 5837 5839 5840 5842 5845 5848 5851 5853 5855 5856 5858 5861 5863 5865 5866 5867 5867 5868 5869 5870 5869 5869 5870 5871 5871 5871 5872 5875 5877 5879 5880 5881 5881 5881 5880 5880 5879 5880 5880 5881 5882 5883 5884 5884 5885 5886 5888 5889 5889 5888 5887 5887 5887 5888 5890 5892 5893 5891 5887 5885 5887 5888 5888 5889 5890 5889 5889 5888
5780 5784 5787 5791 5795 5798 5801 5803 5806 5809 5812 5814 5816 5819 5822 5825 5828 5831 5833 5835 5837 5840 5843 5846 5848 5849 5851 5852 5854 5857 5859 5860 5861 5862 5863 5863 5863 5863 5862 5864 5867 5868 5869 5869 5870 5872 5874 5875 5876 5876 5876 5875 5875 5875 5875 5876 5877 5878 5879 5878 5878 5880 5882 5884 5885 5884 5882 5881 5881 5881 5882 5884 5886 5887 5886 5885 5883 5883 5883 5884 5885 5885 5884 5883 5883
5772 5777 5781 5784 5788 5792 5795 5797 5800 5803 5806 5809 5811 5814 5817 5819 5822 5825 5828 5830 5833 5835 5838 5841 5842 5843 5845 5846 5848 5851 5853 5854 5855 5856 5857 5857 5857 5857 5858 5861 5863 5864 5865 5865 5866 5868 5869 5870 5870 5871 5871 5870 5870 5870 5870 5871 5872 5873 5873 5873 5874 5876 5879 5880 5880 5880 5878 5878 5878 5878 5877 5878 5880 5881 5882 5881 5880 5879 5879 5880 5880 5879 5878 5877 5877
5765 5769 5774 5778 5781 5785 5788 5791 5794 5797 5801 5804 5807 5809 5812 5814 5817 5819 5822 5825 5828 5830 5833 5835 5836 5837 5839 5841 5844 5846 5847 5848 5849 5850 5850 5851 5852 5853 5855 5857 5858 5860 5861 5861 5862 5863 5864 5865 5865 5865 5865 5865 5865 5865 5865 5866 5867 5868 5868 5868 5870 5871 5873 5874 5874 5875 5874 5874 5874 5874 5873 5873 5874 5876 5877 5877 5876 5875 5874 5874 5873 5872 5871 5871 5871
5757 5761 5766 5770 5774 5777 5781 5785 5788 5791 5795 5798 5802 5805 5807 5810 5812 5814 5816 5819 5822 5825 5827 5829 5830 5832 5835 5837 5839 5840 5841 5842 5843 5844 5845 5846 5847 5848 5850 5851 5853 5854 5856 5857 5857 5858 5859 5859 5859 5859 5859 5860 5860 5860 5860 5861 5862 5862 5862 5863 5864 5865 5866 5867 5867 5868 5868 5868 5868 5869 5869 5869 5869 5871 5872 5872 5870 5869 5868 5868 5867 5865 5864 5864 5863
5749 5754 5758 5762 5766 5770 5774 5778 5781 5785 5788 5792 5795 5799 5802 5804 5806 5809 5811 5813 5816 5819 5821 5823 5825 5827 5829 5831 5832 5833 5834 5836 5837 5838 5839 5840 5841 5842 5844 5845 5847 5849 5850 5851 5852 5852 5852 5853 5852 5852 5853 5854 5854 5854 5854 5855 5856 5856 5855 5856 5857 5858 5859 5860 5861 5860 5860 5861 5862 5863 5864 5865 5865 5865 5865 5864 5863 5862 5862 5862 5861 5860 5858 5858 5857
5741 5747 5751 5756 5760 5763 5767 5771 5775 5779 5782 5785 5789 5792 5795 5798 5801 5803 5805 5807 5810 5812 5815 5816 5819 5821 5823 5825 5826 5828 5828 5829 5831 5832 5833 5834 5835 5836 5838 5839 5841 5842 5844 5845 5846 5846 5846 5846 5845 5845 5847 5848 5848 5848 5848 5849 5849 5849 5849 5849 5850 5852 5853 5854 5855 5854 5854 5855 5856 5857 5858 5858 5859 5859 5858 5857 5856 5856 5856 5856 5855 5854 5853 5852 5851
5734 5739 5745 5750 5753 5757 5761 5765 5769 5772 5776 5779 5782 5785 5789 5792 5795 5797 5799 5801 5803 5806 5808 5810 5812 5814 5816 5819 5821 5822 5822 5823 5825 5827 5828 5828 5829 5830 5832 5833 5834 5835 5836 5837 5839 5839 5839 5839 5839 5839 5840 5841 5841 5841 5842 5842 5842 5842 5842 5843 5845 5847 5848 5849 5849 5848 5848 5848 5850 5851 5851 5852 5852 5853 5852 5851 5849 5849 5849 5849 5848 5847 5846 5845 5844
5726 5731 5737 5743 5747 5751 5755 5759 5762 5765 5769 5772 5776 5779 5783 5786 5788 5790 5792 5794 5796 5798 5801 5803 5806 5808 5811 5813 5815 5817 5817 5817 5819 5821 5822 5822 5823 5823 5824 5825 5826 5827 5828 5830 5832 5832 5832 5833 5833 5833 5834 5834 5835 5835 5836 5836 5835 5835 5836 5838 5839 5841 5842 5842 5841 5840 5841 5842 5844 5844 5845 5845 5846 5846 5847 5846 5844 5843 5842 5842 5842 5841 5840 5839 5838
5719 5723 5729 5735 5740 5745 5748 5752 5755 5759 5763 5766 5770 5773 5776 5779 5782 5784 5786 5788 5790 5791 5794 5796 5799 5802 5804 5807 5809 5810 5811 5811 5812 5814 5815 5815 5815 5815 5816 5817 5818 5819 5821 5823 5825 5825 5825 5825 5826 5827 5827 5828 5829 5829 5829 5829 5829 5828 5829 5832 5834 5835 5834 5834 5833 5832 5833 5835 5836 5837 5837 5839 5840 5840 5840 5840 5838 5837 5836 5836 5835 5834 5833 5832 5831
5711 5716 5721 5727 5732 5737 5742 5745 5749 5753 5757 5760 5764 5767 5770 5773 5776 5778 5780 5782 5784 5785 5787 5789 5792 5795 5797 5800 5802 5803 5803 5803 5804 5805 5806 5806 5807 5807 5807 5808 5810 5812 5813 5815 5817 5818 5817 5818 5819 5821 5821 5821 5822 5822 5823 5823 5822 5821 5823 5826 5829 5829 5828 5827 5826 5825 5825 5826 5828 5829 5830 5832 5834 5834 5833 5833 5832 5831 5830 5830 5829 5828 5827 5826 5825
5703 5708 5713 5719 5724 5729 5735 5739 5743 5746 5751 5755 5758 5761 5764 5766 5769 5772 5774 5776 5778 5779 5781 5783 5785 5787 5790 5792 5793 5794 5795 5796 5797 5798 5798 5798 5800 5800 5800 5800 5802 5804 5805 5807 5809 5811 5811 5812 5813 5814 5815 5814 5814 5815 5816 5819 5818 5816 5815 5818 5820 5821 5821 5821 5820 5818 5818 5818 5820 5822 5824 5826 5828 5828 5827 5827 5826 5824 5823 5823 5822 5821 5820 5820 5819
5695 5700 5706 5711 5716 5721 5727 5733 5736 5740 5744 5748 5752 5755 5757 5760 5762 5765 5767 5770 5772 5774 5775 5777 5778 5780 5782 5784 5785 5786 5788 5789 5790 5791 5791 5792 5794 5794 5793 5793 5795 5796 5797 5798 5800 5803 5805 5806 5806 5807 5807 5807 5807 5808 5810 5813 5813 5811 5810 5810 5810 5810 5811 5812 5812 5812 5811 5813 5815 5817 5818 5819 5819 5819 5819 5819 5818 5817 5817 5816 5815 5814 5813 5813 5812
5687 5692 5697 5703 5708 5712 5718 5725 5730 5733 5737 5741 5745 5749 5751 5754 5756 5759 5761 5763 5766 5768 5769 5771 5772 5774 5775 5777 5778 5779 5781 5782 5784 5785 5785 5785 5786 5786 5786 5786 5787 5788 5787 5787 5789 5792 5795 5797 5798 5799 5799 5799 5800 5801 5803 5803 5803 5803 5803 5803 5803 5802 5802 5803 5804 5805 5806 5808 5810 5811 5811 5811 5811 5811 5811 5811 5811 5810 5810 5809 5808 5807 5806 5805 5804
5680 5684 5689 5695 5700 5705 5710 5716 5722 5727 5730 5735 5739 5743 5745 5748 5750 5752 5755 5757 5759 5761 5763 5765 5766 5768 5769 5771 5772 5773 5773 5775 5777 5778 5778 5777 5778 5779 5779 5780 5780 5778 5777 5776 5777 5780 5783 5785 5787 5788 5790 5791 5792 5794 5795 5795 5795 5795 5795 5796 5795 5795 5794 5795 5797 5800 5801 5802 5803 5804 5804 5804 5804 5804 5803 5803 5803 5803 5802 5801 5800 5799 5798 5797 5796
5673 5678 5682 5688 5693 5697 5702 5707 5714 5719 5724 5728 5732 5736 5739 5742 5744 5746 5749 5751 5753 5755 5757 5759 5760 5762 5763 5764 5765 5766 5766 5767 5769 5770 5770 5771 5772 5772 5772 5772 5772 5771 5770 5768 5769 5772 5775 5776 5776 5778 5780 5781 5783 5785 5787 5787 5787 5787 5787 5788 5789 5789 5788 5788 5788 5790 5792 5794 5795 5796 5797 5797 5797 5796 5796 5795 5795 5795 5794 5793 5792 5791 5790 5789 5788
5666 5671 5676 5680 5686 5690 5694 5699 5705 5711 5717 5721 5725 5729 5733 5736 5738 5740 5743 5745 5747 5749 5751 5752 5754 5755 5757 5758 5759 5760 5760 5761 5762 5762 5763 5764 5765 5764 5763 5762 5763 5763 5763 5762 5763 5766 5769 5771 5772 5773 5773 5774 5774 5776 5777 5778 5779 5779 5779 5780 5781 5782 5783 5783 5782 5782 5783 5785 5787 5788 5789 5789 5789 5789 5788 5788 5787 5787 5786 5785 5784 5783 5782 5781 5779
5660 5665 5669 5673 5678 5683 5687 5691 5697 5703 5709 5714 5718 5722 5726 5729 5731 5733 5736 5738 5741 5743 5744 5746 5747 5749 5750 5751 5753 5753 5754 5755 5755 5756 5756 5757 5758 5756 5754 5754 5754 5755 5756 5756 5757 5759 5761 5762 5764 5766 5766 5766 5766 5767 5769 5770 5771 5771 5771 5772 5773 5774 5775 5776 5776 5775 5776 5778 5779 5780 5781 5781 5781 5781 5780 5780 5779 5779 5778 5777 5776 5775 5773 5772 5770